User: anonymous   Login
Location: Adrasan
(36.3319°N, 30.4314°E)
Time: 12:38:25
(UTC+00:00)
Language:

COSMOS 2455 - Orbit

View from above orbital plane
View from above orbital plane
View from above satellite
View from above satellite

Ground track
Ground track

The orbit data is extracted from the following two-line orbital elements,

1 36095U 09063A   24115.12410240  .00000093  00000-0  12107-3 0  9994
2 36095  67.1500 359.5392 0007823 292.9296  67.0963 13.96895861735809
Epoch (UTC): 24 April 2024 02:58:42
Eccentricity: 0.0007823
inclination: 67.1500°
perigee height: 899 km
apogee height: 910 km
right ascension of ascending node: 359.5392°
argument of perigee: 292.9296°
revolutions per day: 13.96895861
mean anomaly at epoch: 67.0963°
orbit number at epoch: 73580

The dashed part of the orbit path shows where the satellite is in the earth's shadow,  

DLR